HULIANWANG DIGUI 13H

Last updated on Wed Dec 10 2025 00:02:06 GMT+0000 (Coordinated Universal Time)

1 66419U 25258H 25342.62362054 .00097774 00000+0 24249-2 0 9998 2 66419 53.1596 125.9585 0001250 98.9072 261.2074 15.39596954 8045
UTC large
Height (km)
Speed (km/s)
/
Latitude / Longitude
Inclination (degrees)
Orbital Period (minutes)
Azimuth
Elevation
Range (km)
Doppler Factor

Next 0 passes for location: London (51.5072 / 0.1276)

Sorry there are no passes over London.